OK2ILA-1 Weather Reports


Display with metric or nautical units.
time (UTC)temp
F
wind
direction
speed
MPH
gust
MPH
rain 1hr
in
rain 24hr
in
rain mn
in
humidity
%
barometer
mb
20260506195245 67 185 7.0 13.0 0.00 0.00 0.00 100 1007.1
20260506194044 67 158 4.0 9.0 0.00 0.00 0.00 100 1007.0
20260506192843 67 143 5.0 8.0 0.00 0.00 0.00 100 1007.0
20260506191643 67 180 5.0 7.0 0.00 0.00 0.00 100 1007.0
20260506191245 67 147 5.0 5.0 0.00 0.00 0.00 100 1006.8
20260506190442 68 165 5.0 8.0 0.00 0.00 0.00 100 1006.7
20260506185241 68 135 7.0 12.0 0.00 0.00 0.00 100 1006.6
20260506184040 68 144 5.0 16.0 0.00 0.00 0.00 100 1006.4
20260506182840 69 137 8.0 16.0 0.00 0.00 0.00 100 1006.2
20260506181639 69 153 14.0 15.0 0.00 0.00 0.00 100 1006.2
20260506180438 70 156 10.0 18.0 0.00 0.00 0.00 100 1006.2
20260506175238 70 153 11.0 19.0 0.00 0.00 0.00 100 1006.2
20260506174037 71 135 10.0 21.0 0.00 0.00 0.00 100 1006.2
20260506172836 71 150 14.0 20.0 0.00 0.00 0.00 100 1006.2
20260506171636 72 157 11.0 19.0 0.00 0.00 0.00 100 1006.3
20260506170435 72 178 11.0 23.0 0.00 0.00 0.00 100 1006.5
20260506165234 73 182 17.0 25.0 0.00 0.00 0.00 100 1006.4
20260506164034 73 199 15.0 22.0 0.00 0.00 0.00 100 1006.4
20260506162833 74 203 14.0 18.0 0.00 0.00 0.00 100 1006.5
20260506161632 74 160 17.0 21.0 0.00 0.00 0.00 100 1006.7
20260506160432 75 154 12.0 17.0 0.00 0.00 0.00 100 1006.8
20260506155231 75 188 7.0 13.0 0.00 0.00 0.00 100 1007.1
20260506154030 73 165 9.0 12.0 0.00 0.00 0.00 100 1007.4
20260506152830 73 146 12.0 17.0 0.00 0.00 0.00 100 1007.4
20260506151629 74 191 7.0 13.0 0.00 0.00 0.00 100 1007.4
20260506150428 75 181 10.0 14.0 0.00 0.00 0.00 100 1007.5
20260506145227 75 194 7.0 11.0 0.00 0.00 0.00 100 1007.7
20260506144027 74 184 7.0 15.0 0.00 0.00 0.00 100 1007.8
20260506142826 74 187 9.0 15.0 0.00 0.00 0.00 100 1007.8
20260506141625 75 188 6.0 13.0 0.00 0.00 0.00 100 1007.9
20260506140425 76 170 16.0 20.0 0.00 0.00 0.00 100 1007.9
20260506135224 75 212 9.0 17.0 0.00 0.00 0.00 100 1008.0
20260506134023 77 175 10.0 17.0 0.00 0.00 0.00 100 1008.1
20260506132823 75 201 8.0 17.0 0.00 0.00 0.00 100 1008.2
20260506131622 75 226 11.0 17.0 0.00 0.00 0.00 100 1008.3
20260506130421 78 215 10.0 16.0 0.00 0.00 0.00 100 1008.3
20260506125221 78 177 11.0 24.0 0.00 0.00 0.00 100 1008.2
20260506124020 78 149 16.0 19.0 0.00 0.00 0.00 100 1008.4
20260506122819 77 171 5.0 16.0 0.00 0.00 0.00 100 1008.5
20260506121619 77 180 9.0 15.0 0.00 0.00 0.00 100 1008.4
20260506120418 76 168 14.0 17.0 0.00 0.00 0.00 100 1008.5
20260506115217 77 189 11.0 21.0 0.00 0.00 0.00 100 1008.4
20260506114017 75 185 10.0 21.0 0.00 0.00 0.00 100 1008.5
20260506112816 76 161 17.0 20.0 0.00 0.00 0.00 100 1008.5
20260506111615 76 223 14.0 21.0 0.00 0.00 0.00 100 1008.6
20260506110415 76 180 10.0 20.0 0.00 0.00 0.00 100 1008.6
20260506105214 76 187 17.0 25.0 0.00 0.00 0.00 100 1008.5
20260506104013 76 163 18.0 21.0 0.00 0.00 0.00 100 1008.4
20260506102813 75 185 14.0 23.0 0.00 0.00 0.00 100 1008.6
20260506101612 75 188 9.0 18.0 0.00 0.00 0.00 100 1008.7
20260506100411 73 178 15.0 19.0 0.00 0.00 0.00 100 1008.8
20260506095210 74 192 14.0 16.0 0.00 0.00 0.00 100 1009.0
20260506094010 74 175 16.0 17.0 0.00 0.00 0.00 100 1009.0
20260506092809 71 246 8.0 15.0 0.00 0.00 0.00 100 1009.1
20260506091608 71 219 10.0 16.0 0.00 0.00 0.00 100 1009.0
20260506090408 72 225 7.0 20.0 0.00 0.00 0.00 100 1009.0
20260506085207 71 222 14.0 20.0 0.00 0.00 0.00 100 1009.0
20260506084006 71 170 7.0 17.0 0.00 0.00 0.00 100 1008.8
20260506082806 71 196 10.0 17.0 0.00 0.00 0.00 100 1008.7
20260506081605 71 195 8.0 21.0 0.00 0.00 0.00 100 1008.6
20260506080404 71 241 14.0 21.0 0.00 0.00 0.00 100 1008.6
20260506072802 68 182 11.0 20.0 0.00 0.00 0.00 100 1008.5
20260506071602 67 172 11.0 18.0 0.00 0.00 0.00 100 1008.6
20260506070401 67 234 9.0 18.0 0.00 0.00 0.00 100 1008.6
20260506061558 64 180 6.0 10.0 0.00 0.00 0.00 100 1008.3
20260506060358 63 201 8.0 12.0 0.00 0.00 0.00 100 1008.3
20260506022745 57 338 1.0 4.0 0.00 0.00 0.00 100 1007.1
20260506021545 58 36 0.0 4.0 0.00 0.00 0.00 100 1007.2
20260506020344 58 281 0.0 2.0 0.00 0.00 0.00 100 1007.3
20260506015143 58 84 0.0 1.0 0.00 0.00 0.00 100 1007.3
20260506013943 58 130 2.0 2.0 0.00 0.00 0.00 100 1007.3
20260506012742 59 209 0.0 2.0 0.00 0.00 0.00 100 1007.4
20260506011541 59 262 0.0 3.0 0.00 0.00 0.00 100 1007.3
20260506010341 59 202 1.0 4.0 0.00 0.00 0.00 100 1007.3
20260506005140 59 248 2.0 5.0 0.00 0.00 0.00 100 1007.3
20260506003939 59 208 9.0 9.0 0.00 0.00 0.00 100 1007.1
20260506002738 59 182 4.0 7.0 0.00 0.00 0.00 100 1007.0
20260506001538 60 181 3.0 3.0 0.00 0.00 0.00 100 1007.2
20260506000337 60 185 6.0 8.0 0.00 0.00 0.00 100 1007.1
20260505235136 60 208 3.0 8.0 0.00 0.00 0.00 100 1007.3
20260505233936 61 215 3.0 6.0 0.00 0.00 0.00 100 1007.5
20260505232735 61 127 3.0 8.0 0.00 0.00 0.00 100 1007.5
20260505231534 61 170 2.0 5.0 0.00 0.00 0.00 100 1007.6
20260505230334 61 163 3.0 4.0 0.00 0.00 0.00 100 1007.7
20260505225133 62 229 0.0 6.0 0.00 0.00 0.00 100 1007.7
20260505223932 62 181 4.0 8.0 0.00 0.00 0.00 100 1007.7
20260505222732 62 243 2.0 6.0 0.00 0.00 0.00 100 1007.7
20260505221531 62 251 2.0 9.0 0.00 0.00 0.00 100 1007.7
20260505220330 62 187 4.0 7.0 0.00 0.00 0.00 100 1007.7
20260505215130 63 184 4.0 11.0 0.00 0.00 0.00 100 1007.8
20260505213929 63 146 3.0 10.0 0.00 0.00 0.00 100 1007.9
20260505212728 64 184 4.0 7.0 0.00 0.00 0.00 100 1008.0
20260505211528 64 206 8.0 8.0 0.00 0.00 0.00 100 1007.8
20260505210327 65 191 1.0 5.0 0.00 0.00 0.00 100 1007.8
20260505205126 65 164 5.0 11.0 0.00 0.00 0.00 100 1007.8
20260505203926 65 175 5.0 12.0 0.00 0.00 0.00 100 1007.8
20260505202725 66 151 8.0 16.0 0.00 0.00 0.00 100 1007.8
20260505201524 65 180 7.0 10.0 0.00 0.00 0.00 100 1007.8
20260505200324 66 168 0.0 5.0 0.00 0.00 0.00 100 1007.9